Brno, Czech Republic

2:24 AM CEST on August 20, 2017 (GMT +0200)
Turany

Weather History for LKTB - September, 2013

Change the Weather History Date:

Monday, September 23, 2013

  Actual Average Record
Temperature  
Mean Temperature 58 °F -  
Max Temperature 64 °F 60 °F - ()
Min Temperature 52 °F 43 °F - ()
Degree Days  
Heating Degree Days 7    
Growing Degree Days 8 (Base 50)    
Moisture  
Dew Point 51 °F    
Average Humidity 74    
Maximum Humidity 88    
Minimum Humidity 62    
Precipitation  
Precipitation 0.00 in 0.04 in - ()
Sea Level Pressure  
Sea Level Pressure 30.10 in    
Wind  
Wind Speed 11 mph ()    
Max Wind Speed 23 mph    
Max Gust Speed -    
Visibility 6.7 miles    
Events      
T = Trace of Precipitation, MM = Missing Value Source: Averaged Metar Reports

Daily Weather History Graph

Daily Weather History Graph

Search for Another Location

Airport or City:

Trip Planner

Search our weather history database for the weather conditions in past years. The results will help you decide how hot, cold, wet, or windy it might be!

Date:

Astronomy

Sep. 23, 2013 Rise Set
Actual Time 6:41 AM CEST 6:49 PM CEST
Civil Twilight 6:09 AM CEST 7:20 PM CEST
Nautical Twilight 5:32 AM CEST 7:57 PM CEST
Astronomical Twilight 4:53 AM CEST 8:36 PM CEST
Moon 8:43 PM CEST (9/23) 11:06 AM CEST (9/23)
Length of Visible Light 13h 11m
Length of Day
12h 07m
Waning Gibbous, 83% of the Moon is Illuminated
Sep 23
Waning Gibbous
Sep 27
Last Quarter
Oct 5
New
Oct 12
First Quarter
Oct 19
Full

Hourly Weather History & Observations

Time (CEST) Temp. Dew Point Humidity Pressure Visibility Wind Dir Wind Speed Gust Speed Precip Events Conditions
12:00 AM 53.6 °F 48.2 °F 82% 30.21 in 6.2 mi WSW 9.2 mph - N/A   Scattered Clouds
12:30 AM 55.4 °F 48.2 °F 77% 30.21 in 6.2 mi SW 8.1 mph - N/A   Scattered Clouds
1:00 AM 53.6 °F 48.2 °F 82% 30.18 in 6.2 mi SW 8.1 mph - N/A   Mostly Cloudy
1:30 AM 55.4 °F 48.2 °F 77% 30.18 in 6.2 mi SSW 6.9 mph - N/A   Mostly Cloudy
2:00 AM 55 °F 48 °F 70% 30.19 in 22 mi South 6.7 mph - -   Mostly Cloudy
2:00 AM 55.4 °F 48.2 °F 77% 30.18 in 6.2 mi South 4.6 mph - N/A   Mostly Cloudy
2:30 AM 51.8 °F 48.2 °F 88% 30.18 in 6.2 mi SSW 3.5 mph - N/A   Mostly Cloudy
3:00 AM 53.6 °F 48.2 °F 82% 30.15 in 6.2 mi SW 5.8 mph - N/A   Mostly Cloudy
3:30 AM 53.6 °F 48.2 °F 82% 30.15 in 6.2 mi WSW 8.1 mph - N/A   Mostly Cloudy
4:00 AM 51.8 °F 48.2 °F 88% 30.15 in 6.2 mi SSW 9.2 mph - N/A   Scattered Clouds
4:30 AM 51.8 °F 48.2 °F 88% 30.15 in 6.2 mi South 8.1 mph - N/A   Scattered Clouds
5:00 AM 53.6 °F 48.2 °F 82% 30.12 in 6.2 mi SSW 4.6 mph - N/A   Scattered Clouds
5:30 AM 53.6 °F 50.0 °F 88% 30.12 in 6.2 mi SSW 5.8 mph - N/A   Scattered Clouds
6:00 AM 55.4 °F 50.0 °F 82% 30.12 in 6.2 mi West 11.5 mph - N/A   Scattered Clouds
6:30 AM 55.4 °F 50.0 °F 82% 30.12 in 6.2 mi West 12.7 mph - N/A   Mostly Cloudy
7:00 AM 55.4 °F 50.0 °F 82% 30.12 in 6.2 mi WSW 10.4 mph - N/A   Overcast
7:30 AM 55.4 °F 50.0 °F 82% 30.12 in 6.2 mi SW 8.1 mph - N/A   Mostly Cloudy
8:00 AM 56 °F 50 °F 75% 30.13 in 19 mi SSW 8.9 mph - -   Mostly Cloudy
8:00 AM 55.4 °F 50.0 °F 82% 30.12 in 6.2 mi SSW 8.1 mph - N/A   Mostly Cloudy
8:30 AM 57.2 °F 51.8 °F 82% 30.12 in 6.2 mi SSW 5.8 mph - N/A   Mostly Cloudy
9:00 AM 59.0 °F 51.8 °F 77% 30.09 in 6.2 mi WNW 11.5 mph - N/A   Mostly Cloudy
9:30 AM 60.8 °F 51.8 °F 72% 30.09 in 6.2 mi WNW 18.4 mph - N/A   Partly Cloudy
10:00 AM 60.8 °F 51.8 °F 72% 30.09 in 6.2 mi WNW 20.7 mph - N/A   Partly Cloudy
10:30 AM 62.6 °F 51.8 °F 68% 30.09 in 6.2 mi WNW 21.9 mph - N/A   Mostly Cloudy
11:00 AM 62.6 °F 51.8 °F 68% 30.09 in 6.2 mi WNW 20.7 mph - N/A   Mostly Cloudy
11:30 AM 62.6 °F 51.8 °F 68% 30.09 in 6.2 mi WNW 18.4 mph - N/A   Mostly Cloudy
12:00 PM 62.6 °F 53.6 °F 72% 30.09 in 6.2 mi WNW 23.0 mph - N/A   Mostly Cloudy
12:30 PM 64.4 °F 53.6 °F 68% 30.09 in 6.2 mi WNW 20.7 mph - N/A   Mostly Cloudy
1:00 PM 62.6 °F 53.6 °F 72% 30.09 in 6.2 mi West 20.7 mph - N/A   Mostly Cloudy
1:30 PM 62.6 °F 51.8 °F 68% 30.09 in 6.2 mi WNW 18.4 mph - N/A   Mostly Cloudy
2:00 PM 62 °F 52 °F 62% 30.08 in 22 mi WNW 17.9 mph - -   Mostly Cloudy
2:00 PM 62.6 °F 53.6 °F 72% 30.09 in 6.2 mi West 18.4 mph - N/A   Mostly Cloudy
2:30 PM 62.6 °F 51.8 °F 68% 30.06 in 6.2 mi WNW 19.6 mph - N/A   Mostly Cloudy
3:00 PM 62.6 °F 53.6 °F 72% 30.06 in 6.2 mi WNW 18.4 mph - N/A   Mostly Cloudy
3:30 PM 62.6 °F 51.8 °F 68% 30.06 in 6.2 mi WNW 18.4 mph - N/A   Mostly Cloudy
4:00 PM 62.6 °F 51.8 °F 68% 30.06 in 6.2 mi WNW 18.4 mph - N/A   Mostly Cloudy
4:30 PM 62.6 °F 51.8 °F 68% 30.06 in 6.2 mi WNW 17.3 mph - N/A   Mostly Cloudy
5:00 PM 62.6 °F 51.8 °F 68% 30.04 in 6.2 mi WNW 15.0 mph - N/A   Mostly Cloudy
5:30 PM 62.6 °F 51.8 °F 68% 30.04 in 6.2 mi WNW 16.1 mph - N/A   Mostly Cloudy
6:00 PM 62.6 °F 51.8 °F 68% 30.04 in 6.2 mi WNW 12.7 mph - N/A   Mostly Cloudy
6:30 PM 60.8 °F 51.8 °F 72% 30.04 in 6.2 mi WNW 17.3 mph - N/A   Mostly Cloudy
7:00 PM 60.8 °F 51.8 °F 72% 30.04 in 6.2 mi WNW 18.4 mph - N/A   Mostly Cloudy
7:30 PM 60.8 °F 51.8 °F 72% 30.04 in 6.2 mi WNW 16.1 mph - N/A   Mostly Cloudy
8:00 PM 60 °F 52 °F 66% 30.04 in 16 mi WNW 13.4 mph - -   Mostly Cloudy
8:00 PM 60.8 °F 51.8 °F 72% 30.04 in 6.2 mi WNW 15.0 mph - N/A   Scattered Clouds
8:30 PM 59.0 °F 51.8 °F 77% 30.04 in 6.2 mi WNW 17.3 mph - N/A   Mostly Cloudy
9:00 PM 60.8 °F 51.8 °F 72% 30.04 in 6.2 mi WNW 13.8 mph - N/A   Mostly Cloudy
9:30 PM 60.8 °F 51.8 °F 72% 30.04 in 6.2 mi NW 17.3 mph - N/A   Mostly Cloudy
10:00 PM 60.8 °F 50.0 °F 68% 30.04 in 6.2 mi NW 15.0 mph - N/A   Mostly Cloudy
10:30 PM 60.8 °F 50.0 °F 68% 30.04 in 6.2 mi WNW 17.3 mph - N/A   Mostly Cloudy
11:00 PM 60.8 °F 50.0 °F 68% 30.01 in 6.2 mi WNW 15.0 mph - N/A   Partly Cloudy
11:30 PM 60.8 °F 50.0 °F 68% 30.04 in 6.2 mi WNW 13.8 mph - N/A   Partly Cloudy